(466027) = 2011 HV82

Discovered at Mount Lemmon on 2011-03-12 by Mt. Lemmon Survey.

Orbit

Orbit type: Main Belt

Note: WebGL enabled browser required.

epoch2023-09-13.0
epoch JD2460200.5
perihelion date2022-12-29.98375
perihelion JD2459943.48375
argument of perihelion (°)45.20369
ascending node (°)210.50474
inclination (°)10.09392
eccentricity0.2021762
perihelion distance (AU)2.5370941
Tisserand w.r.t. Jupiter3.1
ΔV w.r.t. Earth (km/sec)10.5
semimajor axis (AU)3.1800182
mean anomaly (°)44.67042
mean daily motion (°/day)0.17380390
aphelion distance (AU)3.823
period (years)5.67
P-vector [x]-0.25243183
P-vector [y]-0.92987658
P-vector [z]-0.26759617
Q-vector [x]0.96351618
Q-vector [y]-0.26698608
Q-vector [z]0.01884164
absolute magnitude16.42
phase slope0.15
uncertainty0
referenceMPEC 2023-R04
observations used138
oppositions9
arc length (days)4557
first opposition used2011
last opposition used2023
residual rms (arc-secs)0.72
perturbers coarse indicatorM-v
perturbers precise indicator003Ek
first observation date used2011-03-12.0
last observation date used2023-09-02.0
computer nameMPCLINUX
Minimum Orbit Intersection Distances (in AU)
for orbit epoch: 2460200.5, reference: E2023-RJ0
Mercury2.07938
Venus1.81838
Earth1.53428
Mars1.0325
Jupiter1.26803
Saturn5.2738
Uranus15.1553
Neptune26.1128

Observations

145 total observations over interval: 2011 03 12.42560 – 2023 09 13.272076
These data are available for download (format description).

